User: anonymous   Login
Location: Shenandoah County Park
(38.9356°N, 78.4524°W)
Time: 22:44:25
(UTC-04:00)
Language:

Courier 1B Rocket - Orbit

View from above orbital plane
View from above orbital plane
View from above satellite
View from above satellite

Ground track
Ground track

The orbit data is extracted from the following two-line orbital elements,

1 00059U 60013B   24194.51466781  .00000121  00000-0  41876-4 0  9996
2 00059  28.2469 144.2228 0189106 159.7726 201.0429 13.53079997147656
Epoch (UTC): 12 July 2024 12:21:07
Eccentricity: 0.0189106
inclination: 28.2469°
perigee height: 920 km
apogee height: 1201 km
right ascension of ascending node: 144.2228°
argument of perigee: 159.7726°
revolutions per day: 13.53079997
mean anomaly at epoch: 201.0429°
orbit number at epoch: 14765

The dashed part of the orbit path shows where the satellite is in the earth's shadow,  

DLR